EWG4WE LYTV-EDDL

Flight info

Callsign EWG4WE
Flight time 0h 44m
Altitude 38000
Route NIK DCT GACMO DCT EVTON DCT MAGAM DCT VALLU DCT SIMBA DCT EXITI DCT TESDU T852 TINSA T854 DOMUX DOMUX1A
Aircraft A320/M-SDE3FGHIRWY/LB1

Departure

Time 2026-05-08 22:06
Airport Tivat Airport (LYTV)

Arrival

Time 2026-05-08 22:51
Airport Düsseldorf Airport (EDDL)
Time Latitude Longitude Altitude Speed Heading
2026-05-08 21:35 42.41194 18.71707 9 ft 0 kts 180°
2026-05-08 22:00 42.41185 18.71707 8 ft 5 kts 180°
2026-05-08 22:00 42.41119 18.71734 6 ft 16 kts 139°
2026-05-08 22:00 42.41022 18.71847 7 ft 16 kts 140°
2026-05-08 22:01 42.40961 18.71804 6 ft 10 kts 227°
2026-05-08 22:01 42.40898 18.71820 6 ft 15 kts 140°
2026-05-08 22:01 42.40797 18.71937 2 ft 25 kts 139°
2026-05-08 22:03 42.40703 18.72047 2 ft 26 kts 139°
2026-05-08 22:03 42.40586 18.72186 1 ft 22 kts 139°
2026-05-08 22:03 42.40473 18.72319 2 ft 23 kts 139°
2026-05-08 22:03 42.40353 18.72462 6 ft 22 kts 138°
2026-05-08 22:04 42.40234 18.72604 5 ft 24 kts 139°
2026-05-08 22:04 42.40104 18.72754 3 ft 26 kts 140°
2026-05-08 22:04 42.39958 18.72918 1 ft 28 kts 139°
2026-05-08 22:04 42.39809 18.73097 1 ft 29 kts 138°
2026-05-08 22:05 42.39666 18.73262 3 ft 15 kts 147°
2026-05-08 22:05 42.39616 18.73288 3 ft 7 kts 94°
2026-05-08 22:05 42.39639 18.73292 3 ft 3 kts 314°
2026-05-08 22:05 42.39665 18.73263 3 ft 11 kts 321°
2026-05-08 22:06 42.39932 18.72955 1 ft 88 kts 318°
2026-05-08 22:06 42.40548 18.72230 3 ft 145 kts 319°
2026-05-08 22:06 42.41378 18.71270 427 ft 155 kts 319°
2026-05-08 22:06 42.42034 18.70131 1101 ft 156 kts 285°
2026-05-08 22:07 42.41971 18.68635 1560 ft 173 kts 244°
2026-05-08 22:07 42.41127 18.67370 1873 ft 194 kts 218°
2026-05-08 22:07 42.40008 18.66171 2166 ft 216 kts 218°
2026-05-08 22:07 42.38769 18.64849 2725 ft 232 kts 217°
2026-05-08 22:08 42.37504 18.63492 3626 ft 232 kts 218°
2026-05-08 22:08 42.36231 18.62121 4469 ft 236 kts 218°
2026-05-08 22:08 42.34940 18.60721 5272 ft 240 kts 218°
2026-05-08 22:08 42.33573 18.59397 6053 ft 244 kts 206°
2026-05-08 22:09 42.31959 18.58681 6814 ft 246 kts 186°
2026-05-08 22:09 42.30263 18.58718 7577 ft 248 kts 171°
2026-05-08 22:09 42.28539 18.59015 8128 ft 250 kts 171°
2026-05-08 22:09 42.26838 18.59477 8994 ft 250 kts 157°
2026-05-08 22:10 42.25409 18.60799 9802 ft 254 kts 131°
2026-05-08 22:10 42.24537 18.62893 10421 ft 265 kts 105°
2026-05-08 22:10 42.24484 18.65396 11027 ft 274 kts 77°
2026-05-08 22:10 42.25064 18.67797 11706 ft 279 kts 71°
2026-05-08 22:11 42.25729 18.70358 12499 ft 282 kts 71°
2026-05-08 22:11 42.26370 18.72838 13224 ft 286 kts 71°
2026-05-08 22:11 42.28960 18.79140 15009 ft 296 kts 38°
2026-05-08 22:11 42.37485 18.82235 17109 ft 329 kts
2026-05-08 22:12 42.47140 18.84742 18438 ft 382 kts
2026-05-08 22:12 42.57781 18.87423 20549 ft 395 kts
2026-05-08 22:12 42.68606 18.90139 22582 ft 407 kts
2026-05-08 22:12 42.79754 18.89627 24321 ft 407 kts 334°
2026-05-08 22:13 42.88439 18.80314 25814 ft 410 kts 321°
2026-05-08 22:13 42.98216 18.71984 27410 ft 416 kts 323°
2026-05-08 22:13 43.07601 18.62590 28942 ft 421 kts 320°
2026-05-08 22:13 43.17327 18.52738 30017 ft 436 kts 321°
2026-05-08 22:14 43.27128 18.43105 31221 ft 440 kts 321°
2026-05-08 22:14 43.36884 18.33394 33091 ft 423 kts 320°
2026-05-08 22:14 43.46227 18.24052 34694 ft 411 kts 320°
2026-05-08 22:14 43.55489 18.14754 35652 ft 414 kts 320°
2026-05-08 22:15 43.64871 18.05308 36444 ft 417 kts 320°
2026-05-08 22:15 43.74218 17.95886 37333 ft 416 kts 320°
2026-05-08 22:15 43.81107 17.88904 37860 ft 419 kts 320°
2026-05-08 22:15 43.83457 17.86514 38047 ft 419 kts 319°
2026-05-08 22:16 43.85047 17.84896 38090 ft 419 kts 319°
2026-05-08 22:16 43.87390 17.82602 38499 ft 411 kts 320°
2026-05-08 22:16 43.89540 17.80460 39122 ft 394 kts 319°
2026-05-08 22:17 43.91028 17.78957 38888 ft 403 kts 319°
2026-05-08 22:17 43.93276 17.76627 38883 ft 397 kts 318°
2026-05-08 22:18 43.97715 17.71979 38226 ft 406 kts 318°
2026-05-08 22:18 43.99994 17.69601 38063 ft 413 kts 319°
2026-05-08 22:18 44.02308 17.67210 38114 ft 416 kts 319°
2026-05-08 22:19 44.06996 17.62409 37435 ft 420 kts 319°
2026-05-08 22:19 44.09344 17.60013 37046 ft 416 kts 320°
2026-05-08 22:19 44.11691 17.57617 36931 ft 421 kts 320°
2026-05-08 22:19 44.14047 17.55196 36717 ft 423 kts 319°
2026-05-08 22:20 44.16414 17.52754 36926 ft 423 kts 319°
2026-05-08 22:20 44.18892 17.50199 37195 ft 423 kts 319°
2026-05-08 22:20 44.26656 17.42170 37845 ft 425 kts 319°
2026-05-08 22:20 44.32052 17.36566 38125 ft 426 kts 319°
2026-05-08 22:21 44.34431 17.34096 38103 ft 425 kts 319°
2026-05-08 22:21 44.47981 17.19981 38097 ft 426 kts 319°
2026-05-08 22:22 44.66987 17.00030 38112 ft 426 kts 319°
2026-05-08 22:22 44.86525 16.80755 38131 ft 430 kts 321°
2026-05-08 22:23 45.06208 16.61479 38140 ft 431 kts 321°
2026-05-08 22:23 45.25909 16.42053 38146 ft 433 kts 321°
2026-05-08 22:24 45.45515 16.22581 38167 ft 434 kts 321°
2026-05-08 22:24 45.65275 16.02744 38172 ft 434 kts 321°
2026-05-08 22:25 45.84961 15.82853 38197 ft 430 kts 321°
2026-05-08 22:25 46.04306 15.62447 38210 ft 430 kts 317°
2026-05-08 22:26 46.23040 15.40700 38217 ft 433 kts 318°
2026-05-08 22:26 46.41901 15.19051 38245 ft 434 kts 318°
2026-05-08 22:27 46.60823 14.97261 38265 ft 433 kts 318°
2026-05-08 22:27 46.79737 14.75254 38267 ft 434 kts 318°
2026-05-08 22:28 46.98578 14.53111 38276 ft 435 kts 317°
2026-05-08 22:28 47.17310 14.30925 38288 ft 437 kts 317°
2026-05-08 22:29 47.36299 14.08196 38276 ft 436 kts 317°
2026-05-08 22:29 47.55006 13.85601 38281 ft 437 kts 317°
2026-05-08 22:30 47.73815 13.62659 38287 ft 437 kts 317°
2026-05-08 22:30 47.92596 13.39534 38119 ft 441 kts 317°
2026-05-08 22:30 48.01953 13.27948 37977 ft 441 kts 317°
2026-05-08 22:31 48.07996 13.20416 38040 ft 437 kts 317°
2026-05-08 22:31 48.18850 13.06808 38104 ft 436 kts 317°
2026-05-08 22:32 48.37745 12.84363 38116 ft 436 kts 319°
2026-05-08 22:32 48.56874 12.61757 38123 ft 437 kts 319°
2026-05-08 22:33 48.75988 12.38988 38149 ft 437 kts 319°
2026-05-08 22:33 48.95043 12.16037 38171 ft 437 kts 319°
2026-05-08 22:34 49.14048 11.92904 38206 ft 438 kts 319°
2026-05-08 22:34 49.33026 11.69585 38204 ft 437 kts 319°
2026-05-08 22:35 49.51943 11.46129 38228 ft 436 kts 319°
2026-05-08 22:35 49.69401 11.20414 38223 ft 433 kts 313°
2026-05-08 22:36 49.86375 10.93919 38254 ft 433 kts 313°
2026-05-08 22:36 50.03282 10.67294 38278 ft 433 kts 313°
2026-05-08 22:37 50.20118 10.40406 38277 ft 433 kts 308°
2026-05-08 22:37 50.32761 10.08625 38279 ft 431 kts 300°
2026-05-08 22:38 50.45168 9.76443 38272 ft 431 kts 300°
2026-05-08 22:38 50.58557 9.45127 38242 ft 433 kts 308°
2026-05-08 22:39 50.73561 9.15757 38240 ft 434 kts 308°
2026-05-08 22:39 50.88711 8.85691 36563 ft 446 kts 307°
2026-05-08 22:39 50.96332 8.70440 34284 ft 435 kts 308°
2026-05-08 22:40 51.04434 8.56723 31848 ft 422 kts 328°
2026-05-08 22:40 51.14166 8.46741 29539 ft 410 kts 326°
2026-05-08 22:40 51.23540 8.36898 27186 ft 397 kts 326°
2026-05-08 22:40 51.32615 8.27379 25098 ft 383 kts 326°
2026-05-08 22:41 51.41358 8.18157 23092 ft 371 kts 326°
2026-05-08 22:41 51.49261 8.08091 20924 ft 363 kts 297°
2026-05-08 22:41 51.48901 7.92697 19085 ft 353 kts 254°
2026-05-08 22:41 51.46278 7.77629 17171 ft 348 kts 254°
2026-05-08 22:42 51.43639 7.62862 15305 ft 342 kts 253°
2026-05-08 22:42 51.42033 7.48097 13495 ft 336 kts 271°
2026-05-08 22:42 51.42109 7.33905 11633 ft 307 kts 269°
2026-05-08 22:42 51.42057 7.20394 10585 ft 301 kts 261°
2026-05-08 22:43 51.37531 7.09616 9881 ft 287 kts 226°
2026-05-08 22:43 51.32091 7.00577 9186 ft 280 kts 226°
2026-05-08 22:43 51.26678 6.91662 8460 ft 278 kts 227°
2026-05-08 22:43 51.21396 6.83008 7767 ft 258 kts 226°
2026-05-08 22:44 51.17255 6.74564 7206 ft 238 kts 233°
2026-05-08 22:44 51.13173 6.66144 6663 ft 238 kts 233°
2026-05-08 22:44 51.09240 6.57972 6118 ft 236 kts 233°
2026-05-08 22:44 51.05192 6.49589 5541 ft 235 kts 232°
2026-05-08 22:45 51.03432 6.45935 5303 ft 234 kts 233°
2026-05-08 22:45 51.02706 6.43607 5164 ft 234 kts 256°
2026-05-08 22:45 51.02601 6.41042 5027 ft 235 kts 278°
2026-05-08 22:45 51.03118 6.38603 4891 ft 236 kts 300°
2026-05-08 22:46 51.04190 6.36641 4745 ft 236 kts 323°
2026-05-08 22:46 51.05656 6.35492 4603 ft 236 kts 346°
2026-05-08 22:46 51.09587 6.37009 4233 ft 232 kts 44°
2026-05-08 22:46 51.13504 6.45161 3679 ft 230 kts 52°
2026-05-08 22:47 51.17695 6.53779 3081 ft 235 kts 53°
2026-05-08 22:47 51.18714 6.55895 2999 ft 223 kts 53°
2026-05-08 22:47 51.19638 6.57819 2838 ft 217 kts 53°
2026-05-08 22:47 51.20551 6.59720 2593 ft 214 kts 53°
2026-05-08 22:48 51.21456 6.61603 2307 ft 212 kts 53°
2026-05-08 22:48 51.22330 6.63427 2023 ft 205 kts 53°
2026-05-08 22:48 51.23181 6.65203 1783 ft 197 kts 53°
2026-05-08 22:48 51.23994 6.66899 1493 ft 187 kts 53°
2026-05-08 22:49 51.24755 6.68488 1270 ft 173 kts 53°
2026-05-08 22:49 51.26079 6.71256 804 ft 142 kts 53°
2026-05-08 22:49 51.26659 6.72481 575 ft 135 kts 53°
2026-05-08 22:50 51.27223 6.73660 411 ft 134 kts 52°
2026-05-08 22:50 51.27785 6.74833 261 ft 133 kts 52°
2026-05-08 22:50 51.28340 6.75995 134 ft 126 kts 52°
2026-05-08 22:50 51.28787 6.76939 125 ft 83 kts 53°
2026-05-08 22:51 51.29029 6.77450 128 ft 25 kts 53°
2026-05-08 22:51 51.28990 6.77599 126 ft 17 kts 141°
2026-05-08 22:51 51.28891 6.77625 129 ft 15 kts 229°
2026-05-08 22:51 51.28825 6.77480 127 ft 21 kts 233°
2026-05-08 22:52 51.28723 6.77265 127 ft 26 kts 233°
2026-05-08 22:52 51.28609 6.77027 126 ft 28 kts 232°
2026-05-08 22:52 51.28525 6.76850 128 ft 12 kts 233°
2026-05-08 22:52 51.28471 6.76761 126 ft 9 kts 193°
2026-05-08 22:53 51.28415 6.76815 126 ft 9 kts 143°
2026-05-08 22:53 51.28372 6.76863 126 ft 6 kts 154°
2026-05-08 22:53 51.28308 6.76862 129 ft 12 kts 187°
2026-05-08 22:53 51.28229 6.76847 129 ft 11 kts 187°
2026-05-08 22:54 51.28159 6.76834 129 ft 7 kts 189°
2026-05-08 22:54 51.28148 6.76779 127 ft 6 kts 293°
2026-05-08 22:54 51.28155 6.76721 127 ft 0 kts 276°
2026-05-08 22:55 51.04302 6.36508 4736 ft 235 kts 325°
2026-05-08 22:55 51.23072 6.64975 1810 ft 198 kts 53°
2026-05-08 22:56 51.26911 6.73008 516 ft 135 kts 52°
2026-05-08 22:56 51.27422 6.74073 373 ft 132 kts 52°
2026-05-08 22:56 51.27976 6.75236 209 ft 132 kts 52°
2026-05-08 22:56 51.28518 6.76364 128 ft 116 kts 53°
2026-05-08 22:57 51.27838 6.74944 245 ft 132 kts 52°
2026-05-08 22:57 51.28398 6.76115 132 ft 121 kts 52°
2026-05-08 22:57 51.28864 6.77100 125 ft 70 kts 53°